Temperature
13 12 12 12 12 12 12 12 13 13 13 13 13 13 12 12 11 10 10 10 10 10 10 10 10 10 11 11 11 11 11 11 12 12 12 12 12 12 12 12 12 12 12
12 12 12 12 12 11 11 11 12 12 13 13 13 13 12 11 10 10 10 10 10 10 10 10 10 10 10 10 10 10 10 11 11 11 11 11 11 10 11 12 12 11 11
11 11 11 11 11 11 10 11 11 12 12 12 12 12 11 10 10 10 10 10 10 10 10 10 9 9 9 9 9 9 9 9 10 10 10 11 12 11 10 10 10 10 10
9 9 9 10 10 11 11 10 10 11 11 12 12 11 10 10 10 9 9 9 9 9 9 9 9 9 9 9 9 9 9 9 9 9 9 9 10 10 10 9 9 10 10
8 8 8 8 8 9 10 9 9 10 10 11 11 10 10 10 9 9 9 9 9 9 9 9 8 8 8 8 8 8 8 8 8 8 8 8 8 9 9 9 9 9 9
8 8 7 7 7 7 7 8 8 9 9 9 10 10 10 10 9 9 9 8 8 8 8 8 8 8 8 8 8 8 8 8 8 7 7 7 7 7 8 8 8 8 8
8 7 7 6 6 6 6 6 7 7 8 8 9 9 9 9 9 9 8 8 8 8 8 8 8 8 8 8 8 7 7 7 7 7 7 7 7 7 7 7 8 8 8
7 7 6 6 6 5 5 5 6 6 7 7 8 8 9 9 9 9 9 8 8 8 8 8 7 7 7 7 7 7 7 7 7 7 7 7 7 7 7 7 7 7 7
6 6 6 5 5 5 4 4 4 5 6 7 7 8 8 8 8 8 8 8 8 7 7 7 7 7 7 7 7 7 7 7 7 7 7 7 7 7 7 6 6 7 7
6 5 5 5 4 4 3 3 3 4 5 6 6 6 7 7 7 8 7 7 7 7 7 6 6 6 6 6 6 6 6 6 6 6 6 6 6 6 6 6 6 6 6
5 5 5 5 4 3 2 2 2 2 3 4 4 5 5 5 6 6 6 6 6 5 5 5 5 5 5 5 5 4 4 5 5 5 5 5 5 5 5 6 6 6 6
5 5 5 5 4 3 2 1 1 1 0 1 2 2 3 3 4 4 4 4 4 4 4 4 4 4 3 3 3 3 3 3 3 3 3 4 4 4 4 5 5 5 5
5 5 4 4 4 2 1 0 0 -0 -1 -1 -1 -0 0 1 1 2 2 3 2 3 3 3 2 1 1 1 1 1 1 1 1 1 2 2 3 3 3 4 4 4 4
4 4 3 3 3 2 1 0 -0 -0 -1 -1 -1 -1 -1 -0 0 1 1 1 1 1 1 0 -0 -0 -0 -0 0 0 0 0 0 1 1 1 1 1 2 2 2 2 3
3 3 2 2 2 2 1 -0 -0 -0 -1 -1 -2 -2 -1 -1 -1 -1 -1 -1 -1 -1 -1 -2 -2 -1 -1 -1 -1 -0 -0 -0 -0 -0 -0 0 0 0 1 1 1 1 2
2 1 1 0 0 0 0 -0 -1 -1 -1 -2 -3 -3 -3 -3 -3 -3 -3 -3 -3 -3 -3 -3 -2 -2 -2 -2 -2 -2 -2 -2 -2 -1 -1 -1 -1 -1 -0 -0 -0 0 0
-0 -1 -1 -1 -1 -1 -1 -1 -1 -2 -2 -3 -4 -4 -4 -4 -4 -4 -4 -4 -4 -4 -4 -4 -3 -3 -3 -3 -3 -3 -3 -3 -3 -3 -3 -3 -3 -2 -3 -2 -2 -1 -1
-1 -2 -2 -2 -2 -1 -1 -2 -2 -2 -3 -4 -5 -5 -5 -5 -5 -5 -5 -5 -5 -5 -5 -5 -5 -4 -4 -5 -5 -5 -5 -5 -4 -4 -4 -4 -5 -5 -5 -5 -4 -4 -4
-2 -2 -2 -2 -2 -2 -2 -3 -3 -4 -5 -5 -6 -6 -6 -6 -6 -6 -6 -6 -6 -6 -6 -6 -6 -6 -6 -6 -6 -6 -6 -6 -6 -6 -6 -5 -6 -7 -7 -6 -6 -6 -5
-2 -2 -2 -3 -3 -3 -4 -4 -4 -5 -6 -6 -7 -7 -7 -7 -7 -7 -7 -7 -7 -7 -7 -7 -7 -7 -7 -7 -7 -7 -8 -8 -8 -8 -8 -7 -8 -8 -8 -7 -7 -7 -7
-3 -3 -3 -4 -4 -5 -5 -6 -6 -7 -7 -8 -8 -8 -8 -8 -8 -8 -8 -8 -8 -8 -8 -8 -8 -8 -8 -8 -8 -8 -8 -9 -9 -9 -9 -9 -9 -8 -8 -7 -8 -8 -7
-5 -5 -5 -5 -6 -6 -6 -7 -7 -8 -8 -9 -9 -9 -9 -9 -9 -9 -9 -9 -9 -9 -9 -9 -9 -9 -9 -9 -9 -9 -9 -9 -9 -9 -9 -9 -9 -8 -8 -8 -8 -8 -7
-7 -7 -7 -7 -7 -8 -8 -8 -9 -9 -10 -10 -10 -10 -10 -10 -10 -10 -10 -10 -10 -10 -10 -9 -9 -9 -10 -10 -9 -9 -10 -10 -10 -10 -10 -9 -9 -8 -8 -8 -8 -8 -9
-8 -9 -9 -9 -9 -9 -10 -10 -10 -10 -11 -11 -11 -11 -11 -10 -10 -10 -10 -11 -11 -11 -10 -10 -10 -10 -10 -10 -10 -10 -10 -10 -10 -11 -10 -9 -9 -9 -9 -9 -10 -10 -10
-10 -10 -10 -11 -11 -11 -11 -11 -11 -11 -11 -11 -11 -11 -11 -11 -11 -11 -11 -11 -11 -11 -11 -11 -11 -11 -11 -11 -11 -10 -10 -10 -11 -11 -11 -11 -11 -11 -11 -11 -11 -11 -11
-11 -11 -12 -12 -12 -12 -11 -11 -11 -11 -11 -11 -12 -12 -12 -12 -12 -11 -11 -11 -11 -11 -12 -12 -12 -12 -12 -12 -11 -11 -11 -11 -11 -12 -12 -12 -12 -12 -12 -12 -12 -12 -12
Wind_Speed
22 22 18 11 7 8 9 10 10 9 7 6 6 5 5 5 5 4 4 5 5 5 4 4 4 4 4 4 5 4 5 4 3 5 6 6 6 6 4 4 4 5 4
24 24 23 17 11 10 11 11 12 11 10 7 6 5 5 5 4 3 3 3 4 3 3 5 4 4 3 3 3 4 4 3 3 4 4 5 6 5 4 3 3 2 1
24 24 24 23 18 12 12 11 12 11 11 9 6 5 5 5 5 6 5 4 3 3 3 4 4 4 4 4 3 3 5 4 4 4 4 4 6 5 5 4 3 1 1
23 23 23 24 22 18 13 13 13 12 11 10 9 10 8 8 9 6 5 5 4 4 3 4 4 5 5 5 4 3 3 4 4 3 2 2 1 4 4 4 3 1 2
21 22 21 21 21 21 16 14 14 14 12 11 10 10 10 8 7 7 7 6 5 4 4 4 4 5 5 5 5 5 5 4 4 4 4 4 3 5 5 5 5 4 3
20 20 21 21 21 21 20 17 15 15 14 12 11 11 11 10 9 9 8 7 6 5 5 4 5 5 5 6 6 6 6 6 6 5 5 5 5 6 6 6 5 5 4
19 21 22 23 23 23 22 21 19 17 16 14 13 12 11 11 11 10 9 8 7 6 5 4 5 5 5 5 6 6 7 8 8 8 7 7 7 5 6 6 6 6 5
20 21 22 22 22 23 23 23 22 20 17 16 15 14 12 10 9 10 8 7 6 5 3 3 4 5 5 6 6 6 8 7 8 9 9 8 8 7 7 7 7 8 7
22 22 22 22 22 22 22 23 23 22 19 17 16 14 13 10 9 7 5 4 2 1 1 2 4 5 6 6 6 6 8 7 8 8 8 8 8 7 8 8 9 10 10
21 22 21 22 22 21 21 22 22 22 20 17 14 10 10 8 6 4 3 2 2 2 2 4 5 6 7 7 7 7 7 8 8 6 8 8 7 7 7 8 9 10 11
22 23 23 22 21 20 19 19 20 21 19 14 10 7 6 5 5 4 3 2 2 3 3 5 6 7 8 9 9 10 9 9 10 9 9 10 10 8 8 8 9 10 11
24 26 26 25 21 18 17 17 16 16 16 13 7 2 3 4 3 3 3 3 3 4 4 5 6 7 8 8 9 9 9 9 9 9 9 10 9 11 10 10 11 11 12
30 30 28 25 20 16 15 14 13 12 12 10 7 3 1 2 3 3 3 4 4 4 4 4 5 5 6 6 5 5 4 3 2 3 3 5 7 10 9 10 10 9 9
32 31 28 25 20 17 14 12 10 9 9 8 7 5 5 3 3 4 4 4 2 2 3 3 4 4 4 4 4 4 5 5 6 7 7 8 7 6 4 3 3 4 6
33 30 28 24 22 20 16 10 7 6 7 6 6 5 5 4 3 4 3 3 2 2 2 3 4 5 5 6 7 7 7 7 7 8 8 9 11 13 10 6 5 3 1
31 31 29 26 24 22 17 9 5 4 4 4 5 5 5 5 5 4 4 2 1 2 2 4 6 8 6 9 10 7 7 7 6 6 5 6 8 10 11 12 10 8 5
31 30 28 24 22 19 13 5 2 3 3 4 5 6 6 5 5 4 4 3 2 2 3 4 6 7 10 11 10 8 5 5 4 4 4 4 5 5 5 6 5 4 5
29 26 22 20 18 12 4 3 4 4 5 6 6 7 7 6 5 4 4 3 2 2 2 4 4 5 7 10 8 5 4 4 4 4 5 6 6 6 8 7 6 6 4
24 21 18 15 12 7 5 5 6 6 7 7 8 8 8 8 6 4 3 2 1 1 2 3 4 4 5 8 5 2 2 2 2 4 5 6 6 7 9 8 7 7 6
20 17 14 12 11 10 8 8 8 8 9 8 8 8 8 7 6 5 4 3 2 1 1 2 3 4 4 7 6 3 2 3 3 3 3 4 7 9 10 8 7 7 7
18 14 12 12 12 11 10 10 10 10 9 8 7 7 8 7 6 5 4 4 3 2 2 3 3 4 4 4 4 4 3 3 4 3 3 3 8 10 9 8 6 7 10
15 13 11 12 12 12 10 10 10 10 9 8 7 7 7 7 5 5 4 4 4 3 3 4 4 3 2 2 3 5 4 5 5 4 4 4 9 10 9 7 8 9 9
13 12 11 11 11 12 11 11 11 10 9 8 7 7 7 7 6 5 4 4 4 4 4 4 4 4 3 2 3 5 4 5 5 5 5 7 9 9 6 5 8 8 5
12 11 11 11 11 11 11 11 11 10 9 8 8 7 7 7 6 5 5 4 4 4 5 5 5 5 5 4 4 5 4 4 4 4 3 6 7 6 6 6 5 5 5
11 10 10 10 11 11 11 12 12 11 10 9 8 8 7 7 6 6 5 6 5 6 7 6 6 6 6 7 10 9 4 3 2 3 5 5 5 5 5 5 5 5 6
10 10 10 10 11 11 11 12 12 11 11 9 9 8 7 7 7 7 6 4 6 9 9 8 9 8 10 12 12 9 2 1 2 3 5 5 5 6 6 6 6 6 6
Wind_Direction
26 23 15 355 305 263 248 245 243 234 229 227 226 224 223 220 216 214 214 216 213 212 223 231 235 241 243 239 232 212 204 203 211 217 223 222 225 227 224 235 249 242 249
21 20 17 10 338 292 263 250 246 241 234 233 232 230 221 218 209 195 197 207 205 201 210 223 225 224 224 214 209 201 193 181 197 214 212 210 197 185 170 165 171 190 188
17 13 10 7 356 323 284 265 256 247 238 230 219 207 205 209 207 203 197 197 201 194 200 213 217 213 213 207 201 207 208 196 187 212 218 216 216 178 173 153 153 107 18
15 12 8 4 358 344 313 285 275 260 244 231 228 224 223 223 222 214 206 205 208 207 205 212 216 215 213 207 202 201 211 206 199 198 239 249 202 205 193 197 206 279 303
12 9 6 0 357 353 337 306 288 275 259 245 239 235 234 234 227 220 221 224 215 214 214 220 222 222 220 216 213 205 208 215 215 208 200 203 204 223 225 220 224 248 260
6 4 2 358 355 354 347 330 303 285 272 258 246 237 233 227 225 226 228 227 218 206 203 216 223 224 223 219 220 220 222 225 229 228 220 212 205 205 212 225 232 248 263
1 360 358 354 352 349 346 338 322 297 280 266 255 246 240 235 231 230 229 228 220 208 204 223 235 234 232 232 230 230 231 233 236 239 239 237 238 231 229 238 250 261 270
357 355 351 347 345 344 342 338 329 312 288 269 259 255 250 246 242 233 227 222 220 209 207 243 257 258 256 251 245 245 241 238 238 246 246 244 243 241 239 242 252 258 261
349 345 341 339 338 338 338 337 329 317 299 276 262 257 254 248 248 239 226 208 186 176 264 293 286 281 277 271 265 256 253 251 249 250 250 247 245 240 238 239 243 252 262
336 334 332 331 331 331 333 336 334 323 308 289 268 259 254 242 222 199 182 152 104 36 339 319 304 294 288 283 276 271 266 262 257 257 254 249 248 244 237 236 239 244 253
328 327 325 324 324 325 329 335 338 335 326 307 273 241 229 212 186 154 129 84 48 16 342 323 306 295 289 282 274 268 268 265 263 259 259 258 256 252 246 240 239 240 243
322 322 321 320 319 321 325 332 338 342 342 340 327 268 187 168 145 116 94 65 35 12 346 320 307 299 291 283 275 271 267 264 264 265 266 265 264 258 255 248 243 242 240
319 320 320 317 316 317 318 325 336 340 342 343 342 346 24 80 99 91 64 45 26 354 337 319 311 308 302 292 284 274 268 267 283 303 298 296 280 266 257 251 247 242 235
319 319 319 317 318 317 311 312 325 334 339 344 349 358 10 18 47 62 50 39 15 356 352 346 351 358 18 34 48 64 71 67 57 49 41 27 14 355 326 285 265 237 221
320 321 320 318 317 318 312 300 309 332 343 349 355 355 356 2 30 56 53 39 28 23 25 33 33 33 56 66 69 70 65 60 53 46 42 35 26 24 26 36 33 24 20
323 321 318 316 316 316 313 299 305 344 357 1 0 358 359 5 20 31 25 19 33 62 63 53 45 37 46 78 75 76 75 66 56 44 34 28 24 16 20 31 35 29 23
321 317 315 312 311 312 312 304 351 23 18 13 10 6 2 2 7 12 13 18 44 67 63 54 49 42 38 62 72 62 69 73 62 39 17 7 5 0 2 2 355 2 15
321 319 317 314 314 320 345 61 58 43 30 22 16 8 1 359 2 8 16 17 31 64 63 52 44 46 39 41 59 55 45 48 41 22 2 345 337 346 345 334 320 310 307
325 325 325 325 334 2 41 57 50 39 29 20 13 6 359 356 359 9 14 6 351 19 49 43 31 23 24 19 19 11 352 351 357 355 353 341 329 346 338 323 314 308 304
338 343 351 8 19 26 35 43 38 31 21 11 7 5 0 358 1 5 4 355 337 340 2 18 12 0 357 4 359 355 327 322 325 327 341 4 352 349 344 330 319 311 319
357 11 28 34 30 27 33 36 29 19 7 1 3 7 4 358 359 354 354 344 335 323 317 317 324 331 342 347 356 5 343 338 328 329 338 1 355 351 349 337 324 328 325
8 19 31 34 28 25 26 26 18 4 359 1 6 7 6 2 355 349 350 347 332 310 302 302 304 317 317 337 348 352 359 343 322 321 329 352 351 344 339 331 335 332 320
9 16 24 28 24 19 19 16 6 359 359 4 8 7 5 5 358 352 351 345 335 325 316 314 317 324 322 305 319 319 316 321 314 319 337 337 338 331 319 325 328 317 309
8 11 16 18 16 13 15 11 4 0 3 9 9 8 6 5 4 357 352 345 336 334 331 328 327 324 319 312 307 303 262 258 283 297 311 315 317 308 306 309 305 306 311
5 8 9 10 10 11 13 9 5 2 0 5 6 3 2 355 352 352 348 335 329 325 325 326 319 314 310 313 311 314 299 286 323 311 300 305 313 312 311 306 303 305 300
359 360 3 6 7 9 11 9 4 3 0 356 356 354 351 347 344 338 332 330 324 324 324 321 315 309 303 305 309 318 341 38 30 301 294 299 301 302 306 307 307 304 299
Height
1492 1487 1483 1482 1481 1481 1481 1481 1481 1480 1480 1478 1476 1474 1472 1471 1469 1468 1467 1467 1467 1466 1466 1466 1466 1465 1465 1464 1463 1463 1463 1463 1464 1466 1466 1468 1469 1470 1471 1473 1474 1475 1475
1491 1488 1486 1483 1482 1481 1480 1479 1479 1478 1476 1475 1473 1471 1469 1467 1466 1465 1464 1464 1464 1463 1464 1464 1464 1463 1463 1462 1461 1461 1460 1460 1461 1462 1463 1464 1466 1466 1466 1467 1469 1470 1470
1493 1490 1487 1484 1482 1479 1478 1477 1476 1474 1473 1472 1470 1467 1465 1464 1463 1462 1461 1461 1461 1461 1461 1461 1461 1461 1461 1460 1460 1460 1460 1460 1459 1460 1461 1461 1461 1463 1464 1464 1465 1466 1467
1496 1493 1489 1485 1482 1479 1475 1473 1473 1471 1469 1468 1466 1464 1462 1461 1461 1460 1459 1458 1458 1458 1458 1458 1459 1459 1459 1458 1458 1458 1458 1459 1458 1458 1458 1458 1458 1460 1462 1463 1463 1463 1464
1499 1495 1492 1488 1484 1478 1474 1470 1469 1467 1465 1464 1462 1460 1459 1458 1457 1456 1456 1455 1455 1455 1455 1455 1456 1456 1456 1456 1455 1455 1456 1456 1457 1457 1456 1455 1455 1457 1459 1460 1461 1461 1461
1500 1497 1493 1488 1483 1478 1473 1468 1465 1463 1461 1460 1458 1457 1455 1454 1453 1453 1452 1451 1451 1451 1452 1452 1453 1453 1453 1453 1453 1453 1453 1454 1455 1455 1454 1454 1453 1454 1455 1456 1456 1457 1458
1501 1496 1492 1487 1482 1476 1471 1466 1462 1459 1458 1456 1454 1453 1452 1451 1450 1449 1448 1448 1448 1447 1448 1449 1450 1450 1450 1450 1450 1450 1450 1451 1451 1452 1451 1451 1451 1451 1451 1452 1453 1453 1454
1500 1496 1492 1487 1482 1476 1470 1464 1459 1455 1452 1451 1450 1449 1448 1447 1447 1445 1444 1443 1443 1444 1444 1445 1446 1446 1446 1446 1446 1446 1446 1447 1447 1447 1447 1446 1446 1447 1448 1449 1450 1450 1450
1498 1495 1491 1486 1480 1474 1467 1461 1454 1448 1445 1444 1444 1443 1443 1443 1442 1441 1440 1439 1439 1439 1440 1441 1441 1442 1442 1441 1441 1441 1441 1441 1441 1441 1441 1441 1441 1442 1443 1445 1446 1448 1447
1499 1495 1489 1483 1477 1471 1464 1457 1449 1442 1437 1436 1436 1436 1436 1436 1436 1436 1435 1434 1433 1434 1435 1436 1436 1436 1436 1435 1435 1435 1435 1435 1435 1435 1436 1436 1436 1437 1438 1439 1441 1442 1443
1496 1491 1485 1479 1473 1467 1460 1452 1444 1437 1431 1428 1427 1426 1428 1428 1429 1429 1429 1430 1429 1430 1430 1431 1430 1430 1429 1428 1428 1428 1428 1428 1429 1429 1429 1430 1431 1431 1432 1433 1434 1436 1437
1492 1486 1480 1474 1468 1462 1456 1449 1441 1434 1428 1423 1421 1419 1419 1420 1421 1422 1423 1424 1424 1424 1425 1425 1424 1423 1422 1421 1420 1420 1420 1421 1422 1422 1422 1423 1424 1425 1426 1427 1428 1429 1430
1486 1480 1474 1468 1462 1457 1451 1445 1439 1433 1427 1422 1419 1416 1415 1414 1415 1416 1418 1418 1419 1421 1421 1420 1419 1418 1417 1416 1415 1415 1415 1415 1416 1416 1416 1416 1417 1418 1419 1420 1421 1422 1422
1481 1474 1468 1462 1457 1453 1447 1442 1436 1431 1426 1422 1418 1415 1413 1412 1411 1411 1412 1414 1415 1416 1416 1416 1416 1415 1414 1414 1413 1412 1412 1412 1412 1411 1411 1412 1412 1413 1413 1413 1414 1415 1416
1475 1469 1463 1458 1453 1449 1444 1438 1433 1429 1424 1420 1417 1414 1412 1410 1408 1408 1409 1410 1411 1412 1413 1414 1414 1413 1413 1412 1411 1410 1410 1409 1409 1409 1409 1409 1409 1409 1409 1409 1409 1410 1411
1472 1465 1459 1453 1448 1444 1439 1434 1430 1426 1422 1419 1415 1413 1411 1409 1407 1407 1407 1407 1409 1411 1412 1412 1412 1412 1411 1410 1409 1408 1408 1407 1407 1407 1407 1407 1407 1406 1406 1406 1406 1407 1407
1470 1461 1454 1448 1442 1438 1434 1430 1427 1424 1421 1418 1415 1413 1411 1409 1407 1406 1406 1408 1410 1411 1411 1411 1410 1410 1410 1408 1407 1406 1406 1406 1406 1406 1405 1405 1404 1403 1402 1402 1402 1403 1403
1465 1456 1449 1442 1438 1433 1430 1427 1425 1423 1420 1417 1415 1413 1411 1409 1407 1407 1408 1409 1411 1411 1410 1409 1409 1408 1408 1407 1405 1405 1405 1404 1404 1403 1402 1402 1401 1400 1399 1399 1399 1399 1399
1462 1453 1446 1440 1435 1431 1428 1426 1424 1422 1420 1418 1416 1413 1411 1410 1409 1409 1410 1410 1411 1410 1409 1407 1407 1406 1405 1404 1404 1403 1403 1402 1401 1400 1399 1398 1398 1397 1396 1396 1395 1395 1395
1459 1451 1444 1439 1435 1432 1429 1427 1424 1422 1420 1418 1416 1414 1412 1411 1410 1410 1410 1410 1409 1408 1407 1405 1405 1404 1403 1402 1401 1401 1401 1400 1399 1398 1396 1395 1394 1394 1393 1393 1393 1392 1392
1457 1450 1444 1439 1435 1433 1430 1428 1425 1423 1420 1418 1416 1414 1412 1411 1410 1410 1409 1408 1407 1406 1405 1404 1402 1401 1400 1399 1399 1399 1399 1398 1397 1396 1395 1394 1392 1391 1390 1390 1390 1389 1387
1457 1451 1445 1441 1437 1434 1431 1429 1426 1424 1421 1419 1417 1414 1412 1411 1409 1408 1407 1406 1405 1405 1403 1402 1401 1400 1398 1397 1396 1396 1396 1396 1396 1395 1394 1392 1389 1388 1387 1387 1386 1385 1384
1459 1453 1448 1444 1440 1436 1433 1430 1428 1425 1422 1420 1418 1415 1412 1410 1408 1407 1406 1405 1404 1404 1403 1402 1400 1399 1398 1396 1394 1394 1393 1393 1393 1392 1390 1388 1386 1385 1385 1384 1383 1382 1381
1461 1456 1451 1446 1442 1438 1435 1432 1429 1426 1424 1422 1419 1416 1414 1411 1409 1407 1406 1405 1404 1403 1402 1401 1399 1397 1396 1395 1394 1392 1391 1390 1389 1388 1387 1385 1383 1382 1381 1380 1379 1378 1377
1463 1458 1453 1449 1445 1441 1437 1434 1431 1428 1426 1424 1421 1418 1415 1412 1410 1407 1405 1404 1403 1401 1400 1398 1397 1395 1394 1393 1391 1390 1389 1387 1386 1385 1384 1383 1381 1379 1378 1377 1375 1374 1372
1464 1460 1456 1452 1448 1444 1440 1437 1433 1430 1427 1424 1422 1418 1415 1412 1410 1407 1405 1402 1400 1398 1396 1395 1394 1392 1391 1389 1388 1386 1385 1383 1382 1381 1381 1379 1378 1376 1374 1373 1371 1369 1368